Time,TemperatureF,DewpointF,PressureIn,WindDirection,WindDirectionDegrees,WindSpeedMPH,WindSpeedGustMPH,Humidity,HourlyPrecipIn,Conditions,Clouds,dailyrainin,SolarRadiationWatts/m^2,SoftwareType,DateUTC
2013-11-06 00:00:00,46.5,41.9,30.26,ESE,114,0.0,6.0,84,0.00,,---,0.00,0.00,VWS V14.01,2013-11-06 08:00:00,
2013-11-06 00:01:00,46.4,41.8,30.25,ESE,114,0.0,5.0,84,0.00,,---,0.00,0.00,VWS V14.01,2013-11-06 08:01:00,
2013-11-06 00:06:00,46.4,41.8,30.26,ESE,114,0.0,5.0,84,0.00,,---,0.00,0.00,VWS V14.01,2013-11-06 08:06:00,
2013-11-06 00:11:00,46.3,41.4,30.25,ESE,114,0.0,5.0,83,0.00,,---,0.00,0.00,VWS V14.01,2013-11-06 08:11:00,
2013-11-06 00:16:00,46.3,41.4,30.26,ESE,114,0.0,5.0,83,0.00,,---,0.00,0.00,VWS V14.01,2013-11-06 08:16:00,
2013-11-06 00:21:00,46.2,41.3,30.26,ESE,114,0.0,5.0,83,0.00,,---,0.00,0.00,VWS V14.01,2013-11-06 08:21:00,
2013-11-06 00:25:00,46.1,41.2,30.26,ESE,114,0.0,1.0,83,0.00,,---,0.00,0.00,VWS V14.01,2013-11-06 08:25:00,
2013-11-06 00:30:00,46.1,41.2,30.26,ESE,114,2.0,4.0,83,0.00,,---,0.00,0.00,VWS V14.01,2013-11-06 08:30:00,
2013-11-06 00:35:00,46.0,41.1,30.26,ESE,114,0.0,4.0,83,0.00,,---,0.00,0.00,VWS V14.01,2013-11-06 08:35:00,
2013-11-06 00:40:00,46.0,41.1,30.26,ESE,114,0.0,4.0,83,0.00,,---,0.00,0.00,VWS V14.01,2013-11-06 08:40:00,
2013-11-06 00:45:00,45.9,41.3,30.26,ESE,114,0.0,4.0,84,0.00,,---,0.00,0.00,VWS V14.01,2013-11-06 08:45:00,
2013-11-06 00:50:00,45.9,41.3,30.26,ESE,114,0.0,4.0,84,0.00,,---,0.00,0.00,VWS V14.01,2013-11-06 08:50:00,
2013-11-06 00:55:00,45.9,41.3,30.26,ESE,114,0.0,1.0,84,0.00,,---,0.00,0.00,VWS V14.01,2013-11-06 08:55:00,
2013-11-06 01:00:00,45.8,41.2,30.26,ESE,114,0.0,3.0,84,0.00,,---,0.00,0.00,VWS V14.01,2013-11-06 09:00:00,
2013-11-06 01:05:00,45.8,41.2,30.27,ESE,114,0.0,3.0,84,0.00,,---,0.00,0.00,VWS V14.01,2013-11-06 09:05:00,
2013-11-06 01:10:00,45.8,41.2,30.27,ESE,114,0.0,3.0,84,0.00,,---,0.00,0.00,VWS V14.01,2013-11-06 09:10:00,
2013-11-06 01:15:00,45.8,41.2,30.27,ESE,114,0.0,3.0,84,0.00,,---,0.00,0.00,VWS V14.01,2013-11-06 09:15:00,
2013-11-06 01:20:00,45.8,41.2,30.27,ESE,114,0.0,3.0,84,0.00,,---,0.00,0.00,VWS V14.01,2013-11-06 09:20:00,
2013-11-06 01:25:00,45.8,41.2,30.27,ESE,114,0.0,1.0,84,0.00,,---,0.00,0.00,VWS V14.01,2013-11-06 09:25:00,
2013-11-06 01:30:00,45.8,40.9,30.27,ESE,114,0.0,5.0,83,0.00,,---,0.00,0.00,VWS V14.01,2013-11-06 09:30:00,
2013-11-06 01:35:00,45.9,41.0,30.26,ESE,114,0.0,5.0,83,0.00,,---,0.00,0.00,VWS V14.01,2013-11-06 09:35:00,
2013-11-06 01:40:00,45.9,41.0,30.26,ESE,114,0.0,5.0,83,0.00,,---,0.00,0.00,VWS V14.01,2013-11-06 09:40:00,
2013-11-06 01:45:00,45.9,41.0,30.27,ESE,114,0.0,5.0,83,0.00,,---,0.00,0.00,VWS V14.01,2013-11-06 09:45:00,
2013-11-06 01:50:00,46.0,41.1,30.27,ESE,114,0.0,5.0,83,0.00,,---,0.00,0.00,VWS V14.01,2013-11-06 09:50:00,
2013-11-06 01:55:00,46.0,41.1,30.27,ESE,114,0.0,0.0,83,0.00,,---,0.00,0.00,VWS V14.01,2013-11-06 09:55:00,
2013-11-06 02:00:00,46.0,41.1,30.27,ESE,114,0.0,1.0,83,0.00,,---,0.00,0.00,VWS V14.01,2013-11-06 10:00:00,
2013-11-06 02:05:00,46.0,41.1,30.27,ESE,114,0.0,1.0,83,0.00,,---,0.00,0.00,VWS V14.01,2013-11-06 10:05:00,
2013-11-06 02:10:00,46.0,41.1,30.27,ESE,114,0.0,1.0,83,0.00,,---,0.00,0.00,VWS V14.01,2013-11-06 10:10:00,
2013-11-06 02:15:00,45.9,41.0,30.27,ESE,114,0.0,1.0,83,0.00,,---,0.00,0.00,VWS V14.01,2013-11-06 10:15:00,
2013-11-06 02:20:00,45.9,41.3,30.27,ESE,114,1.0,1.0,84,0.00,,---,0.00,0.00,VWS V14.01,2013-11-06 10:20:00,
2013-11-06 02:25:00,45.9,41.3,30.27,ESE,114,0.0,0.0,84,0.00,,---,0.00,0.00,VWS V14.01,2013-11-06 10:25:00,
2013-11-06 02:30:00,45.9,41.3,30.28,ESE,114,0.0,1.0,84,0.00,,---,0.00,0.00,VWS V14.01,2013-11-06 10:30:00,
2013-11-06 02:35:00,45.8,41.2,30.27,ESE,114,0.0,1.0,84,0.00,,---,0.00,0.00,VWS V14.01,2013-11-06 10:35:00,
2013-11-06 02:40:00,45.7,41.2,30.27,ESE,114,0.0,1.0,84,0.00,,---,0.00,0.00,VWS V14.01,2013-11-06 10:40:00,
2013-11-06 02:45:00,45.6,41.0,30.27,ESE,114,0.0,1.0,84,0.00,,---,0.00,0.00,VWS V14.01,2013-11-06 10:45:00,
2013-11-06 02:50:00,45.5,41.0,30.27,ESE,114,0.0,1.0,84,0.00,,---,0.00,0.00,VWS V14.01,2013-11-06 10:50:00,
2013-11-06 02:55:00,45.5,41.3,30.27,ESE,114,0.0,0.0,85,0.00,,---,0.00,0.00,VWS V14.01,2013-11-06 10:55:00,
2013-11-06 03:00:00,45.4,41.2,30.27,ESE,114,0.0,0.0,85,0.00,,---,0.00,0.00,VWS V14.01,2013-11-06 11:00:00,
2013-11-06 03:05:00,45.4,41.2,30.27,ESE,114,0.0,0.0,85,0.00,,---,0.00,0.00,VWS V14.01,2013-11-06 11:05:00,
2013-11-06 03:10:00,45.3,41.1,30.27,ESE,114,0.0,0.0,85,0.00,,---,0.00,0.00,VWS V14.01,2013-11-06 11:10:00,
2013-11-06 03:15:00,45.2,41.0,30.27,ESE,114,0.0,0.0,85,0.00,,---,0.00,0.00,VWS V14.01,2013-11-06 11:15:00,
2013-11-06 03:20:00,45.2,41.0,30.27,ESE,114,0.0,0.0,85,0.00,,---,0.00,0.00,VWS V14.01,2013-11-06 11:20:00,
2013-11-06 03:25:00,45.1,40.9,30.27,ESE,114,0.0,0.0,85,0.00,,---,0.00,0.00,VWS V14.01,2013-11-06 11:25:00,
2013-11-06 03:30:00,45.1,40.9,30.27,ESE,114,0.0,0.0,85,0.00,,---,0.00,0.00,VWS V14.01,2013-11-06 11:30:00,
2013-11-06 03:35:00,45.0,40.8,30.27,ESE,114,0.0,0.0,85,0.00,,---,0.00,0.00,VWS V14.01,2013-11-06 11:35:00,
2013-11-06 03:40:00,45.0,41.1,30.27,ESE,114,0.0,0.0,86,0.00,,---,0.00,0.00,VWS V14.01,2013-11-06 11:40:00,
2013-11-06 03:45:00,45.0,41.1,30.27,ESE,114,0.0,0.0,86,0.00,,---,0.00,0.00,VWS V14.01,2013-11-06 11:45:00,
2013-11-06 03:50:00,44.9,40.7,30.27,ESE,114,0.0,0.0,85,0.00,,---,0.00,0.00,VWS V14.01,2013-11-06 11:50:00,
2013-11-06 03:55:00,44.8,40.6,30.27,ESE,114,0.0,0.0,85,0.00,,---,0.00,0.00,VWS V14.01,2013-11-06 11:55:00,
2013-11-06 04:00:00,44.7,40.8,30.27,ESE,114,0.0,0.0,86,0.00,,---,0.00,0.00,VWS V14.01,2013-11-06 12:00:00,
2013-11-06 04:05:00,44.7,40.8,30.27,ESE,114,0.0,0.0,86,0.00,,---,0.00,0.00,VWS V14.01,2013-11-06 12:05:00,
2013-11-06 04:10:00,44.6,40.7,30.27,ESE,114,0.0,0.0,86,0.00,,---,0.00,0.00,VWS V14.01,2013-11-06 12:10:00,
2013-11-06 04:15:00,44.6,40.7,30.27,ESE,114,0.0,1.0,86,0.00,,---,0.00,0.00,VWS V14.01,2013-11-06 12:15:00,
2013-11-06 04:20:00,44.5,40.6,30.27,ESE,114,0.0,1.0,86,0.00,,---,0.00,0.00,VWS V14.01,2013-11-06 12:20:00,
2013-11-06 04:25:00,44.5,40.6,30.28,ESE,114,0.0,0.0,86,0.00,,---,0.00,0.00,VWS V14.01,2013-11-06 12:25:00,
2013-11-06 04:30:00,44.4,40.5,30.28,ESE,114,0.0,0.0,86,0.00,,---,0.00,0.00,VWS V14.01,2013-11-06 12:30:00,
2013-11-06 04:35:00,44.4,40.5,30.28,ESE,114,0.0,0.0,86,0.00,,---,0.00,0.00,VWS V14.01,2013-11-06 12:35:00,
2013-11-06 04:40:00,44.4,40.8,30.28,ESE,114,0.0,1.0,87,0.00,,---,0.00,0.00,VWS V14.01,2013-11-06 12:40:00,
2013-11-06 04:45:00,44.4,40.8,30.28,ESE,114,0.0,1.0,87,0.00,,---,0.00,0.00,VWS V14.01,2013-11-06 12:45:00,
2013-11-06 04:50:00,44.5,40.9,30.28,ESE,114,0.0,1.0,87,0.00,,---,0.00,0.00,VWS V14.01,2013-11-06 12:50:00,
2013-11-06 04:55:00,44.4,40.8,30.28,ESE,114,0.0,0.0,87,0.00,,---,0.00,0.00,VWS V14.01,2013-11-06 12:55:00,
2013-11-06 05:00:00,44.3,40.7,30.29,ESE,114,0.0,0.0,87,0.00,,---,0.00,0.00,VWS V14.01,2013-11-06 13:00:00,
2013-11-06 05:05:00,44.3,40.7,30.28,ESE,114,0.0,0.0,87,0.00,,---,0.00,0.00,VWS V14.01,2013-11-06 13:05:00,
2013-11-06 05:10:00,44.2,40.6,30.28,ESE,114,0.0,1.0,87,0.00,,---,0.00,0.00,VWS V14.01,2013-11-06 13:10:00,
2013-11-06 05:15:00,44.1,40.5,30.28,ESE,114,0.0,1.0,87,0.00,,---,0.00,0.00,VWS V14.01,2013-11-06 13:15:00,
2013-11-06 05:20:00,44.0,40.4,30.29,ESE,114,0.0,1.0,87,0.00,,---,0.00,0.00,VWS V14.01,2013-11-06 13:20:00,
2013-11-06 05:25:00,44.0,40.4,30.28,ESE,114,0.0,0.0,87,0.00,,---,0.00,0.00,VWS V14.01,2013-11-06 13:25:00,
2013-11-06 05:30:00,43.9,40.3,30.29,ESE,114,0.0,0.0,87,0.00,,---,0.00,0.00,VWS V14.01,2013-11-06 13:30:00,
2013-11-06 05:35:00,43.8,40.2,30.28,ESE,114,0.0,1.0,87,0.00,,---,0.00,0.00,VWS V14.01,2013-11-06 13:35:00,
2013-11-06 05:40:00,43.8,40.2,30.28,ESE,114,0.0,1.0,87,0.00,,---,0.00,0.00,VWS V14.01,2013-11-06 13:40:00,
2013-11-06 05:45:00,43.7,40.1,30.28,ESE,114,0.0,1.0,87,0.00,,---,0.00,0.00,VWS V14.01,2013-11-06 13:45:00,
2013-11-06 05:50:00,43.7,40.1,30.28,ESE,114,0.0,1.0,87,0.00,,---,0.00,0.00,VWS V14.01,2013-11-06 13:50:00,
2013-11-06 05:55:00,43.6,40.0,30.28,ESE,114,0.0,0.0,87,0.00,,---,0.00,0.00,VWS V14.01,2013-11-06 13:55:00,
2013-11-06 06:00:00,43.6,40.0,30.28,ESE,114,0.0,0.0,87,0.00,,---,0.00,0.00,VWS V14.01,2013-11-06 14:00:00,
2013-11-06 06:05:00,43.6,40.0,30.28,ESE,114,0.0,0.0,87,0.00,,---,0.00,0.00,VWS V14.01,2013-11-06 14:05:00,
2013-11-06 06:10:00,43.6,40.3,30.29,ESE,114,0.0,0.0,88,0.00,,---,0.00,0.00,VWS V14.01,2013-11-06 14:10:00,
2013-11-06 06:15:00,43.7,40.4,30.29,ESE,114,0.0,0.0,88,0.00,,---,0.00,0.00,VWS V14.01,2013-11-06 14:15:00,
2013-11-06 06:20:00,43.7,40.4,30.29,ESE,114,0.0,0.0,88,0.00,,---,0.00,0.00,VWS V14.01,2013-11-06 14:20:00,
2013-11-06 06:25:00,43.7,40.4,30.29,ESE,114,0.0,0.0,88,0.00,,---,0.00,0.00,VWS V14.01,2013-11-06 14:25:00,
2013-11-06 06:30:00,43.7,40.4,30.29,ESE,114,0.0,0.0,88,0.00,,---,0.00,0.00,VWS V14.01,2013-11-06 14:30:00,
2013-11-06 06:35:00,43.6,40.3,30.29,ESE,114,0.0,0.0,88,0.00,,---,0.00,0.00,VWS V14.01,2013-11-06 14:35:00,
2013-11-06 06:40:00,43.5,40.2,30.29,ESE,114,0.0,0.0,88,0.00,,---,0.00,0.00,VWS V14.01,2013-11-06 14:40:00,
2013-11-06 06:45:00,43.3,40.0,30.29,ESE,114,0.0,0.0,88,0.00,,---,0.00,0.00,VWS V14.01,2013-11-06 14:45:00,
2013-11-06 06:50:00,43.3,40.0,30.29,ESE,114,0.0,0.0,88,0.00,,---,0.00,0.00,VWS V14.01,2013-11-06 14:50:00,
2013-11-06 06:55:00,43.2,41.0,30.29,ESE,114,0.0,0.0,92,0.00,,---,0.00,0.00,VWS V14.01,2013-11-06 14:55:00,
2013-11-06 07:00:00,43.1,39.8,30.30,ESE,114,0.0,0.0,88,0.00,,---,0.00,0.00,VWS V14.01,2013-11-06 15:00:00,
2013-11-06 07:05:00,43.0,39.7,30.30,ESE,114,0.0,0.0,88,0.00,,---,0.00,0.00,VWS V14.01,2013-11-06 15:05:00,
2013-11-06 07:10:00,42.9,39.6,30.30,ESE,114,0.0,0.0,88,0.00,,---,0.00,0.00,VWS V14.01,2013-11-06 15:10:00,
2013-11-06 07:15:00,42.9,39.6,30.30,ESE,114,0.0,0.0,88,0.00,,---,0.00,5.00,VWS V14.01,2013-11-06 15:15:00,
2013-11-06 07:20:00,42.8,39.5,30.30,ESE,114,0.0,0.0,88,0.00,,---,0.00,9.00,VWS V14.01,2013-11-06 15:20:00,
2013-11-06 07:25:00,42.9,39.6,30.30,ESE,114,0.0,0.0,88,0.00,,---,0.00,11.00,VWS V14.01,2013-11-06 15:25:00,
2013-11-06 07:30:00,43.0,40.0,30.31,ESE,114,0.0,0.0,89,0.00,,---,0.00,14.00,VWS V14.01,2013-11-06 15:30:00,
2013-11-06 07:35:00,43.1,40.1,30.30,ESE,114,0.0,0.0,89,0.00,,---,0.00,14.00,VWS V14.01,2013-11-06 15:35:00,
2013-11-06 07:40:00,43.2,40.2,30.31,ESE,114,0.0,0.0,89,0.00,,---,0.00,14.00,VWS V14.01,2013-11-06 15:40:00,
2013-11-06 07:45:00,43.2,40.2,30.31,ESE,114,0.0,1.0,89,0.00,,---,0.00,16.00,VWS V14.01,2013-11-06 15:45:00,
2013-11-06 07:50:00,43.3,40.3,30.31,ESE,114,0.0,1.0,89,0.00,,---,0.00,16.00,VWS V14.01,2013-11-06 15:50:00,
2013-11-06 07:55:00,43.4,40.4,30.31,ESE,114,0.0,0.0,89,0.00,,---,0.00,18.00,VWS V14.01,2013-11-06 15:55:00,
2013-11-06 08:00:00,43.6,40.6,30.31,ESE,114,0.0,2.0,89,0.00,,---,0.00,18.00,VWS V14.01,2013-11-06 16:00:00,
2013-11-06 08:05:00,43.7,40.7,30.31,ESE,114,0.0,2.0,89,0.00,,---,0.00,19.00,VWS V14.01,2013-11-06 16:05:00,
2013-11-06 08:10:00,43.9,40.9,30.31,ESE,114,0.0,2.0,89,0.00,,---,0.00,18.00,VWS V14.01,2013-11-06 16:10:00,
2013-11-06 08:15:00,44.1,41.4,30.31,ESE,114,0.0,3.0,90,0.00,,---,0.00,18.00,VWS V14.01,2013-11-06 16:15:00,
2013-11-06 08:20:00,44.2,41.5,30.31,ESE,114,0.0,3.0,90,0.00,,---,0.00,18.00,VWS V14.01,2013-11-06 16:20:00,
2013-11-06 08:25:00,44.4,41.7,30.31,ESE,114,0.0,0.0,90,0.00,,---,0.00,16.00,VWS V14.01,2013-11-06 16:25:00,
2013-11-06 08:30:00,44.5,41.8,30.31,ESE,114,0.0,4.0,90,0.00,,---,0.00,21.00,VWS V14.01,2013-11-06 16:30:00,
2013-11-06 08:35:00,44.6,41.8,30.31,ESE,114,0.0,4.0,90,0.00,,---,0.00,23.00,VWS V14.01,2013-11-06 16:35:00,
2013-11-06 08:40:00,44.8,42.0,30.31,ESE,114,0.0,4.0,90,0.00,,---,0.00,28.00,VWS V14.01,2013-11-06 16:40:00,
2013-11-06 08:45:00,45.0,42.2,30.31,ESE,114,1.0,4.0,90,0.00,,---,0.00,35.00,VWS V14.01,2013-11-06 16:45:00,
2013-11-06 08:50:00,45.0,42.2,30.31,ESE,114,0.0,4.0,90,0.00,,---,0.00,44.00,VWS V14.01,2013-11-06 16:50:00,
2013-11-06 08:55:00,45.1,42.3,30.31,ESE,114,0.0,4.0,90,0.00,,---,0.00,47.00,VWS V14.01,2013-11-06 16:55:00,
2013-11-06 09:00:00,45.2,42.5,30.31,ESE,114,0.0,2.0,90,0.00,,---,0.00,54.00,VWS V14.01,2013-11-06 17:00:00,
2013-11-06 09:05:00,45.4,42.3,30.31,ESE,114,2.0,4.0,89,0.00,,---,0.00,58.00,VWS V14.01,2013-11-06 17:05:00,
2013-11-06 09:10:00,45.6,42.8,30.31,ESE,114,0.0,4.0,90,0.00,,---,0.00,53.00,VWS V14.01,2013-11-06 17:10:00,
2013-11-06 09:15:00,45.7,42.7,30.31,ESE,114,0.0,4.0,89,0.00,,---,0.00,53.00,VWS V14.01,2013-11-06 17:15:00,
2013-11-06 09:20:00,45.8,42.8,30.32,ESE,114,0.0,4.0,89,0.00,,---,0.00,54.00,VWS V14.01,2013-11-06 17:20:00,
2013-11-06 09:25:00,45.9,42.8,30.32,ESE,114,0.0,4.0,89,0.00,,---,0.00,53.00,VWS V14.01,2013-11-06 17:25:00,
2013-11-06 09:30:00,46.0,43.0,30.32,ESE,114,0.0,0.0,89,0.00,,---,0.00,51.00,VWS V14.01,2013-11-06 17:30:00,
2013-11-06 09:35:00,46.1,43.0,30.31,ESE,114,0.0,1.0,89,0.00,,---,0.00,56.00,VWS V14.01,2013-11-06 17:35:00,
2013-11-06 09:40:00,46.3,43.0,30.31,ESE,114,0.0,1.0,88,0.00,,---,0.00,65.00,VWS V14.01,2013-11-06 17:40:00,
2013-11-06 09:45:00,46.4,43.0,30.31,ESE,114,0.0,1.0,88,0.00,,---,0.00,63.00,VWS V14.01,2013-11-06 17:45:00,
2013-11-06 09:50:00,46.5,42.8,30.31,ESE,114,0.0,1.0,87,0.00,,---,0.00,69.00,VWS V14.01,2013-11-06 17:50:00,
2013-11-06 09:55:00,46.7,43.0,30.31,ESE,114,1.0,2.0,87,0.00,,---,0.00,54.00,VWS V14.01,2013-11-06 17:55:00,
2013-11-06 10:00:00,46.8,43.1,30.31,ESE,114,1.0,1.0,87,0.00,,---,0.00,47.00,VWS V14.01,2013-11-06 18:00:00,
2013-11-06 10:05:00,47.0,43.3,30.31,ESE,114,0.0,1.0,87,0.00,,---,0.00,51.00,VWS V14.01,2013-11-06 18:05:00,
2013-11-06 10:10:00,47.1,43.1,30.31,ESE,114,0.0,2.0,86,0.00,,---,0.00,47.00,VWS V14.01,2013-11-06 18:10:00,
2013-11-06 10:15:00,47.2,43.2,30.31,ESE,114,0.0,2.0,86,0.00,,---,0.00,60.00,VWS V14.01,2013-11-06 18:15:00,
2013-11-06 10:20:00,47.4,43.4,30.31,ESE,114,0.0,2.0,86,0.00,,---,0.00,46.00,VWS V14.01,2013-11-06 18:20:00,
2013-11-06 10:25:00,47.5,43.2,30.31,ESE,114,0.0,2.0,85,0.00,,---,0.00,53.00,VWS V14.01,2013-11-06 18:25:00,
2013-11-06 10:30:00,47.7,43.7,30.31,ESE,114,0.0,0.0,86,0.00,,---,0.00,69.00,VWS V14.01,2013-11-06 18:30:00,
2013-11-06 10:35:00,47.8,43.8,30.31,ESE,114,0.0,0.0,86,0.00,,---,0.00,65.00,VWS V14.01,2013-11-06 18:35:00,
2013-11-06 10:40:00,48.0,43.7,30.31,ESE,114,0.0,0.0,85,0.00,,---,0.00,76.00,VWS V14.01,2013-11-06 18:40:00,
2013-11-06 10:45:00,48.2,43.9,30.32,ESE,114,0.0,1.0,85,0.00,,---,0.00,74.00,VWS V14.01,2013-11-06 18:45:00,
2013-11-06 10:50:00,48.5,43.9,30.31,ESE,114,0.0,1.0,84,0.00,,---,0.00,72.00,VWS V14.01,2013-11-06 18:50:00,
2013-11-06 10:55:00,48.6,44.0,30.31,ESE,114,0.0,1.0,84,0.00,,---,0.00,56.00,VWS V14.01,2013-11-06 18:55:00,
2013-11-06 11:00:00,48.9,44.0,30.31,ESE,114,0.0,1.0,83,0.00,,---,0.00,53.00,VWS V14.01,2013-11-06 19:00:00,
2013-11-06 11:05:00,49.0,44.1,30.32,ESE,114,0.0,1.0,83,0.00,,---,0.00,58.00,VWS V14.01,2013-11-06 19:05:00,
2013-11-06 11:10:00,49.2,44.0,30.31,ESE,114,0.0,1.0,82,0.00,,---,0.00,65.00,VWS V14.01,2013-11-06 19:10:00,
2013-11-06 11:15:00,49.3,44.0,30.31,ESE,114,3.0,4.0,82,0.00,,---,0.00,58.00,VWS V14.01,2013-11-06 19:15:00,
2013-11-06 11:20:00,49.4,43.8,30.31,ESE,114,0.0,4.0,81,0.00,,---,0.00,58.00,VWS V14.01,2013-11-06 19:20:00,
2013-11-06 11:25:00,49.4,43.8,30.31,ESE,114,0.0,4.0,81,0.00,,---,0.00,67.00,VWS V14.01,2013-11-06 19:25:00,
2013-11-06 11:30:00,49.5,43.9,30.31,ESE,114,1.0,3.0,81,0.00,,---,0.00,69.00,VWS V14.01,2013-11-06 19:30:00,
2013-11-06 11:35:00,49.6,44.0,30.31,ESE,114,0.0,5.0,81,0.00,,---,0.00,74.00,VWS V14.01,2013-11-06 19:35:00,
2013-11-06 11:40:00,49.7,44.1,30.31,ESE,114,3.0,6.0,81,0.00,,---,0.00,72.00,VWS V14.01,2013-11-06 19:40:00,
2013-11-06 11:45:00,49.7,44.1,30.30,ESE,114,0.0,6.0,81,0.00,,---,0.00,63.00,VWS V14.01,2013-11-06 19:45:00,
2013-11-06 11:50:00,49.8,43.9,30.30,ESE,114,4.0,6.0,80,0.00,,---,0.00,76.00,VWS V14.01,2013-11-06 19:50:00,
2013-11-06 11:55:00,49.9,44.0,30.30,ESE,114,2.0,6.0,80,0.00,,---,0.00,79.00,VWS V14.01,2013-11-06 19:55:00,
2013-11-06 12:00:00,50.0,43.8,30.29,ESE,114,2.0,5.0,79,0.00,,---,0.00,65.00,VWS V14.01,2013-11-06 20:00:00,
2013-11-06 12:05:00,50.0,43.4,30.29,ESE,114,0.0,5.0,78,0.00,,---,0.00,58.00,VWS V14.01,2013-11-06 20:05:00,
2013-11-06 12:10:00,50.2,44.0,30.29,ESE,114,0.0,5.0,79,0.00,,---,0.00,69.00,VWS V14.01,2013-11-06 20:10:00,
2013-11-06 12:15:00,50.3,44.0,30.28,ESE,114,0.0,5.0,79,0.00,,---,0.00,81.00,VWS V14.01,2013-11-06 20:15:00,
2013-11-06 12:20:00,50.4,43.8,30.28,ESE,114,2.0,7.0,78,0.00,,---,0.00,102.00,VWS V14.01,2013-11-06 20:20:00,
2013-11-06 12:25:00,50.5,43.9,30.28,ESE,114,0.0,7.0,78,0.00,,---,0.00,95.00,VWS V14.01,2013-11-06 20:25:00,
2013-11-06 12:30:00,50.6,43.7,30.28,ESE,114,0.0,4.0,77,0.00,,---,0.00,90.00,VWS V14.01,2013-11-06 20:30:00,
2013-11-06 12:35:00,50.7,43.8,30.28,ESE,114,2.0,4.0,77,0.00,,---,0.00,84.00,VWS V14.01,2013-11-06 20:35:00,
2013-11-06 12:40:00,50.8,43.5,30.28,ESE,114,0.0,4.0,76,0.00,,---,0.00,90.00,VWS V14.01,2013-11-06 20:40:00,
2013-11-06 12:45:00,50.9,43.3,30.28,ESE,114,0.0,4.0,75,0.00,,---,0.00,83.00,VWS V14.01,2013-11-06 20:45:00,
2013-11-06 12:50:00,50.9,42.9,30.28,ESE,114,1.0,4.0,74,0.00,,---,0.00,60.00,VWS V14.01,2013-11-06 20:50:00,
2013-11-06 12:55:00,51.0,43.4,30.28,ESE,114,0.0,4.0,75,0.00,,---,0.00,60.00,VWS V14.01,2013-11-06 20:55:00,
2013-11-06 13:00:00,51.0,43.4,30.27,ESE,114,0.0,1.0,75,0.00,,---,0.00,58.00,VWS V14.01,2013-11-06 21:00:00,
2013-11-06 13:05:00,51.0,43.0,30.27,ESE,114,0.0,1.0,74,0.00,,---,0.00,53.00,VWS V14.01,2013-11-06 21:05:00,
2013-11-06 13:10:00,51.1,43.1,30.26,ESE,114,0.0,4.0,74,0.00,,---,0.00,51.00,VWS V14.01,2013-11-06 21:10:00,
2013-11-06 13:15:00,51.1,43.1,30.27,ESE,114,0.0,4.0,74,0.00,,---,0.00,58.00,VWS V14.01,2013-11-06 21:15:00,
2013-11-06 13:20:00,51.1,43.1,30.26,ESE,114,0.0,4.0,74,0.00,,---,0.00,62.00,VWS V14.01,2013-11-06 21:20:00,
2013-11-06 13:25:00,51.1,42.8,30.26,ESE,114,0.0,4.0,73,0.00,,---,0.00,74.00,VWS V14.01,2013-11-06 21:25:00,
2013-11-06 13:30:00,51.0,42.7,30.26,ESE,114,0.0,2.0,73,0.00,,---,0.00,54.00,VWS V14.01,2013-11-06 21:30:00,
2013-11-06 13:35:00,51.0,42.7,30.26,ESE,114,0.0,2.0,73,0.00,,---,0.00,47.00,VWS V14.01,2013-11-06 21:35:00,
2013-11-06 13:40:00,51.0,42.7,30.25,ESE,114,0.0,2.0,73,0.00,,---,0.00,46.00,VWS V14.01,2013-11-06 21:40:00,
2013-11-06 13:45:00,51.0,42.7,30.25,ESE,114,0.0,2.0,73,0.00,,---,0.00,47.00,VWS V14.01,2013-11-06 21:45:00,
2013-11-06 13:50:00,51.0,43.0,30.25,ESE,114,0.0,2.0,74,0.00,,---,0.00,46.00,VWS V14.01,2013-11-06 21:50:00,
2013-11-06 13:55:00,51.1,43.5,30.25,ESE,114,0.0,3.0,75,0.00,,---,0.00,51.00,VWS V14.01,2013-11-06 21:55:00,
2013-11-06 14:00:00,51.1,43.5,30.25,ESE,114,0.0,1.0,75,0.00,,---,0.00,56.00,VWS V14.01,2013-11-06 22:00:00,
2013-11-06 14:05:00,51.2,44.2,30.25,ESE,114,0.0,2.0,77,0.00,,---,0.00,51.00,VWS V14.01,2013-11-06 22:05:00,
2013-11-06 14:10:00,51.3,44.3,30.25,ENE,58,1.0,5.0,77,0.00,,---,0.00,47.00,VWS V14.01,2013-11-06 22:10:00,
2013-11-06 14:15:00,51.2,44.6,30.25,ENE,58,4.0,5.0,78,0.00,,---,0.00,37.00,VWS V14.01,2013-11-06 22:15:00,
2013-11-06 14:20:00,51.2,44.6,30.24,ENE,58,0.0,5.0,78,0.00,,---,0.00,30.00,VWS V14.01,2013-11-06 22:20:00,
2013-11-06 14:25:00,51.1,44.5,30.24,ENE,58,1.0,5.0,78,0.00,,---,0.00,32.00,VWS V14.01,2013-11-06 22:25:00,
2013-11-06 14:30:00,51.0,44.4,30.24,ENE,58,0.0,2.0,78,0.00,,---,0.00,30.00,VWS V14.01,2013-11-06 22:30:00,
2013-11-06 14:35:00,50.9,44.3,30.24,ENE,58,1.0,2.0,78,0.00,,---,0.00,25.00,VWS V14.01,2013-11-06 22:35:00,
2013-11-06 14:40:00,50.9,44.3,30.24,ENE,58,0.0,2.0,78,0.00,,---,0.00,19.00,VWS V14.01,2013-11-06 22:40:00,
2013-11-06 14:45:00,50.8,44.2,30.24,ENE,58,0.0,2.0,78,0.00,,---,0.00,16.00,VWS V14.01,2013-11-06 22:45:00,
2013-11-06 14:50:00,50.9,45.3,30.24,ENE,58,0.0,2.0,81,0.00,,---,0.00,16.00,VWS V14.01,2013-11-06 22:50:00,
2013-11-06 14:55:00,50.8,44.5,30.24,ENE,58,0.0,2.0,79,0.00,,---,0.00,14.00,VWS V14.01,2013-11-06 22:55:00,
2013-11-06 15:00:00,50.7,44.4,30.24,ENE,58,0.0,1.0,79,0.00,,---,0.00,14.00,VWS V14.01,2013-11-06 23:00:00,
2013-11-06 15:05:00,50.6,44.3,30.23,ENE,58,0.0,1.0,79,0.00,,---,0.00,14.00,VWS V14.01,2013-11-06 23:05:00,
2013-11-06 15:10:00,50.6,44.3,30.23,ENE,58,0.0,1.0,79,0.00,,---,0.00,14.00,VWS V14.01,2013-11-06 23:10:00,
2013-11-06 15:15:00,50.5,43.9,30.23,ENE,58,0.0,1.0,78,0.00,,---,0.00,19.00,VWS V14.01,2013-11-06 23:15:00,
2013-11-06 15:20:00,50.3,43.4,30.23,ENE,58,0.0,4.0,77,0.00,,---,0.00,14.00,VWS V14.01,2013-11-06 23:20:00,
2013-11-06 15:25:00,50.3,43.4,30.23,ENE,58,0.0,4.0,77,0.00,,---,0.00,11.00,VWS V14.01,2013-11-06 23:25:00,
2013-11-06 15:30:00,50.2,43.3,30.23,ENE,58,2.0,2.0,77,0.00,,---,0.00,12.00,VWS V14.01,2013-11-06 23:30:00,
2013-11-06 15:35:00,50.1,43.2,30.22,ENE,58,0.0,5.0,77,0.00,,---,0.00,21.00,VWS V14.01,2013-11-06 23:35:00,
2013-11-06 15:40:00,50.1,43.2,30.22,ENE,58,4.0,5.0,77,0.00,,---,0.00,23.00,VWS V14.01,2013-11-06 23:40:00,
2013-11-06 15:45:00,50.1,43.5,30.22,ENE,58,0.0,5.0,78,0.00,,---,0.00,18.00,VWS V14.01,2013-11-06 23:45:00,
2013-11-06 15:50:00,50.1,43.5,30.22,ENE,58,0.0,5.0,78,0.00,,---,0.00,14.00,VWS V14.01,2013-11-06 23:50:00,
2013-11-06 15:55:00,50.1,43.5,30.22,ENE,58,2.0,5.0,78,0.00,,---,0.00,12.00,VWS V14.01,2013-11-06 23:55:00,
2013-11-06 16:00:00,50.1,43.5,30.22,ENE,58,0.0,1.0,78,0.00,,---,0.00,12.00,VWS V14.01,2013-11-07 00:00:00,
2013-11-06 16:05:00,50.1,43.5,30.21,ENE,58,0.0,1.0,78,0.00,,---,0.00,11.00,VWS V14.01,2013-11-07 00:05:00,
2013-11-06 16:10:00,50.1,43.5,30.21,ENE,58,0.0,1.0,78,0.00,,---,0.00,7.00,VWS V14.01,2013-11-07 00:10:00,
2013-11-06 16:15:00,50.1,43.5,30.21,ENE,58,0.0,1.0,78,0.00,,---,0.00,5.00,VWS V14.01,2013-11-07 00:15:00,
2013-11-06 16:20:00,50.0,43.4,30.21,ENE,58,0.0,2.0,78,0.00,,---,0.00,0.00,VWS V14.01,2013-11-07 00:20:00,
2013-11-06 16:25:00,50.0,43.4,30.21,ENE,58,0.0,2.0,78,0.00,,---,0.00,0.00,VWS V14.01,2013-11-07 00:25:00,
2013-11-06 16:30:00,50.0,43.4,30.21,ENE,58,0.0,0.0,78,0.00,,---,0.00,0.00,VWS V14.01,2013-11-07 00:30:00,
2013-11-06 16:35:00,49.9,43.7,30.20,ENE,58,0.0,0.0,79,0.00,,---,0.00,0.00,VWS V14.01,2013-11-07 00:35:00,
2013-11-06 16:40:00,49.9,43.7,30.20,ENE,58,0.0,0.0,79,0.00,,---,0.00,0.00,VWS V14.01,2013-11-07 00:40:00,
2013-11-06 16:45:00,49.9,43.7,30.20,ENE,58,0.0,0.0,79,0.00,,---,0.00,0.00,VWS V14.01,2013-11-07 00:45:00,
2013-11-06 16:50:00,49.9,43.7,30.20,ENE,58,0.0,0.0,79,0.00,,---,0.00,0.00,VWS V14.01,2013-11-07 00:50:00,
2013-11-06 16:55:00,49.8,43.6,30.20,ENE,58,0.0,0.0,79,0.00,,---,0.00,0.00,VWS V14.01,2013-11-07 00:55:00,
2013-11-06 17:00:00,49.8,43.6,30.19,ENE,58,0.0,0.0,79,0.00,,---,0.00,0.00,VWS V14.01,2013-11-07 01:00:00,
2013-11-06 17:05:00,49.7,43.5,30.19,ENE,58,0.0,0.0,79,0.00,,---,0.00,0.00,VWS V14.01,2013-11-07 01:05:00,
2013-11-06 17:10:00,49.7,43.8,30.19,ENE,58,0.0,0.0,80,0.00,,---,0.00,0.00,VWS V14.01,2013-11-07 01:10:00,
2013-11-06 17:15:00,49.7,43.8,30.19,ENE,58,0.0,0.0,80,0.00,,---,0.00,0.00,VWS V14.01,2013-11-07 01:15:00,
2013-11-06 17:20:00,49.6,43.7,30.19,ENE,58,0.0,0.0,80,0.00,,---,0.00,0.00,VWS V14.01,2013-11-07 01:20:00,
2013-11-06 17:25:00,49.6,44.0,30.19,ENE,58,0.0,2.0,81,0.00,,---,0.00,0.00,VWS V14.01,2013-11-07 01:25:00,
2013-11-06 17:30:00,49.5,43.9,30.19,ENE,58,0.0,0.0,81,0.00,,---,0.00,0.00,VWS V14.01,2013-11-07 01:30:00,
2013-11-06 17:35:00,49.5,43.9,30.19,ENE,58,0.0,1.0,81,0.00,,---,0.00,0.00,VWS V14.01,2013-11-07 01:35:00,
2013-11-06 17:40:00,49.4,43.8,30.19,ENE,58,0.0,2.0,81,0.00,,---,0.00,0.00,VWS V14.01,2013-11-07 01:40:00,
2013-11-06 17:45:00,49.4,43.8,30.19,ENE,58,0.0,2.0,81,0.00,,---,0.00,0.00,VWS V14.01,2013-11-07 01:45:00,
2013-11-06 17:50:00,49.4,44.1,30.19,ENE,58,0.0,2.0,82,0.00,,---,0.00,0.00,VWS V14.01,2013-11-07 01:50:00,
2013-11-06 17:55:00,49.3,44.0,30.19,ENE,58,0.0,2.0,82,0.00,,---,0.00,0.00,VWS V14.01,2013-11-07 01:55:00,
2013-11-06 18:00:00,49.2,44.0,30.19,ENE,58,0.0,0.0,82,0.00,,---,0.00,0.00,VWS V14.01,2013-11-07 02:00:00,
2013-11-06 18:05:00,49.2,44.0,30.18,ENE,58,0.0,0.0,82,0.00,,---,0.00,0.00,VWS V14.01,2013-11-07 02:05:00,
2013-11-06 18:10:00,49.1,44.2,30.19,ENE,58,0.0,0.0,83,0.00,,---,0.00,0.00,VWS V14.01,2013-11-07 02:10:00,
2013-11-06 18:15:00,49.0,44.1,30.19,ENE,58,0.0,0.0,83,0.00,,---,0.00,0.00,VWS V14.01,2013-11-07 02:15:00,
2013-11-06 18:20:00,48.9,44.0,30.18,ENE,58,0.0,0.0,83,0.00,,---,0.00,0.00,VWS V14.01,2013-11-07 02:20:00,
2013-11-06 18:25:00,48.8,43.9,30.18,ENE,58,0.0,1.0,83,0.00,,---,0.00,0.00,VWS V14.01,2013-11-07 02:25:00,
2013-11-06 18:30:00,48.7,43.8,30.18,ENE,58,0.0,0.0,83,0.00,,---,0.00,0.00,VWS V14.01,2013-11-07 02:30:00,
2013-11-06 18:35:00,48.7,43.8,30.18,ENE,58,0.0,0.0,83,0.00,,---,0.00,0.00,VWS V14.01,2013-11-07 02:35:00,
2013-11-06 18:40:00,48.6,43.7,30.18,ENE,58,0.0,0.0,83,0.00,,---,0.00,0.00,VWS V14.01,2013-11-07 02:40:00,
2013-11-06 18:45:00,48.5,43.9,30.18,ENE,58,0.0,0.0,84,0.00,,---,0.00,0.00,VWS V14.01,2013-11-07 02:45:00,
2013-11-06 18:50:00,48.5,43.9,30.17,ENE,58,0.0,0.0,84,0.00,,---,0.00,0.00,VWS V14.01,2013-11-07 02:50:00,
2013-11-06 18:55:00,48.4,44.1,30.17,ENE,58,0.0,0.0,85,0.00,,---,0.00,0.00,VWS V14.01,2013-11-07 02:55:00,
2013-11-06 19:00:00,48.3,44.0,30.17,ENE,58,0.0,0.0,85,0.00,,---,0.00,0.00,VWS V14.01,2013-11-07 03:00:00,
2013-11-06 19:05:00,48.3,44.0,30.17,ENE,58,0.0,0.0,85,0.00,,---,0.00,0.00,VWS V14.01,2013-11-07 03:05:00,
2013-11-06 19:10:00,48.3,44.0,30.17,ENE,58,0.0,0.0,85,0.00,,---,0.00,0.00,VWS V14.01,2013-11-07 03:10:00,
2013-11-06 19:15:00,48.2,43.9,30.17,ENE,58,0.0,0.0,85,0.00,,---,0.00,0.00,VWS V14.01,2013-11-07 03:15:00,
2013-11-06 19:20:00,48.2,43.9,30.17,ENE,58,0.0,0.0,85,0.00,,---,0.00,0.00,VWS V14.01,2013-11-07 03:20:00,
2013-11-06 19:25:00,48.2,43.9,30.17,ENE,58,0.0,0.0,85,0.00,,---,0.00,0.00,VWS V14.01,2013-11-07 03:25:00,
2013-11-06 19:29:00,48.2,44.2,30.16,ENE,58,0.0,0.0,86,0.00,,---,0.00,0.00,VWS V14.01,2013-11-07 03:29:00,
2013-11-06 19:30:00,48.2,43.9,30.17,ENE,58,0.0,0.0,85,0.00,,---,0.00,0.00,VWS V14.01,2013-11-07 03:30:00,
2013-11-06 19:34:00,48.1,44.1,30.16,ENE,58,0.0,0.0,86,0.00,,---,0.00,0.00,VWS V14.01,2013-11-07 03:34:00,
2013-11-06 19:39:00,48.1,44.1,30.16,ENE,58,0.0,0.0,86,0.00,,---,0.00,0.00,VWS V14.01,2013-11-07 03:39:00,
2013-11-06 19:44:00,48.0,44.0,30.16,ENE,58,0.0,0.0,86,0.00,,---,0.00,0.00,VWS V14.01,2013-11-07 03:44:00,
2013-11-06 19:49:00,47.9,43.9,30.15,ENE,58,0.0,2.0,86,0.00,,---,0.00,0.00,VWS V14.01,2013-11-07 03:49:00,
2013-11-06 19:54:00,47.9,44.2,30.15,ENE,58,0.0,2.0,87,0.00,,---,0.00,0.00,VWS V14.01,2013-11-07 03:54:00,
2013-11-06 19:59:00,47.9,44.2,30.15,ENE,58,0.0,0.0,87,0.00,,---,0.00,0.00,VWS V14.01,2013-11-07 03:59:00,
2013-11-06 20:00:00,47.9,44.2,30.15,ENE,58,0.0,2.0,87,0.00,,---,0.00,0.00,VWS V14.01,2013-11-07 04:00:00,
2013-11-06 20:04:00,47.8,44.1,30.14,ENE,58,0.0,1.0,87,0.00,,---,0.00,0.00,VWS V14.01,2013-11-07 04:04:00,
2013-11-06 20:09:00,47.8,44.1,30.14,ENE,58,0.0,1.0,87,0.00,,---,0.00,0.00,VWS V14.01,2013-11-07 04:09:00,
2013-11-06 20:14:00,47.8,44.1,30.14,ENE,58,0.0,1.0,87,0.00,,---,0.00,0.00,VWS V14.01,2013-11-07 04:14:00,
2013-11-06 20:19:00,47.8,44.1,30.14,ENE,58,0.0,1.0,87,0.00,,---,0.00,0.00,VWS V14.01,2013-11-07 04:19:00,
2013-11-06 20:24:00,47.7,44.0,30.13,ENE,58,0.0,1.0,87,0.00,,---,0.00,0.00,VWS V14.01,2013-11-07 04:24:00,
2013-11-06 20:29:00,47.7,44.0,30.13,ENE,58,0.0,0.0,87,0.00,,---,0.00,0.00,VWS V14.01,2013-11-07 04:29:00,
2013-11-06 20:30:00,47.7,44.0,30.13,ENE,58,0.0,1.0,87,0.00,,---,0.00,0.00,VWS V14.01,2013-11-07 04:30:00,
2013-11-06 20:34:00,47.7,44.0,30.13,ENE,58,0.0,1.0,87,0.00,,---,0.00,0.00,VWS V14.01,2013-11-07 04:34:00,
2013-11-06 20:39:00,47.7,44.0,30.13,ENE,58,0.0,2.0,87,0.00,,---,0.00,0.00,VWS V14.01,2013-11-07 04:39:00,
2013-11-06 20:44:00,47.7,44.0,30.12,ENE,58,0.0,2.0,87,0.00,,---,0.00,0.00,VWS V14.01,2013-11-07 04:44:00,
2013-11-06 20:49:00,47.7,44.0,30.12,ENE,58,0.0,2.0,87,0.00,,---,0.00,0.00,VWS V14.01,2013-11-07 04:49:00,
2013-11-06 20:54:00,47.8,44.1,30.12,ENE,58,0.0,2.0,87,0.00,,---,0.00,0.00,VWS V14.01,2013-11-07 04:54:00,
2013-11-06 20:59:00,47.7,44.0,30.12,ENE,58,0.0,0.0,87,0.00,,---,0.00,0.00,VWS V14.01,2013-11-07 04:59:00,
2013-11-06 21:00:00,47.7,44.0,30.12,ENE,58,0.0,2.0,87,0.00,,---,0.00,0.00,VWS V14.01,2013-11-07 05:00:00,
2013-11-06 21:01:00,47.7,44.0,30.12,ENE,58,0.0,0.0,87,0.00,,---,0.00,0.00,VWS V14.01,2013-11-07 05:01:00,
2013-11-06 21:06:00,47.8,44.1,30.12,ENE,58,0.0,0.0,87,0.00,,---,0.00,0.00,VWS V14.01,2013-11-07 05:06:00,
2013-11-06 21:11:00,47.8,44.1,30.11,ENE,58,0.0,0.0,87,0.00,,---,0.00,0.00,VWS V14.01,2013-11-07 05:11:00,
2013-11-06 21:16:00,47.8,44.4,30.11,ENE,58,0.0,1.0,88,0.00,,---,0.00,0.00,VWS V14.01,2013-11-07 05:16:00,
2013-11-06 21:21:00,47.8,44.4,30.11,ENE,58,0.0,1.0,88,0.00,,---,0.00,0.00,VWS V14.01,2013-11-07 05:21:00,
2013-11-06 21:26:00,47.8,44.4,30.11,ENE,58,0.0,0.0,88,0.00,,---,0.00,0.00,VWS V14.01,2013-11-07 05:26:00,
2013-11-06 21:30:00,47.8,44.4,30.11,ENE,58,0.0,1.0,88,0.00,,---,0.00,0.00,VWS V14.01,2013-11-07 05:30:00,
2013-11-06 21:31:00,47.8,44.4,30.11,ENE,58,0.0,0.0,88,0.00,,---,0.00,0.00,VWS V14.01,2013-11-07 05:31:00,
2013-11-06 21:36:00,47.8,44.4,30.10,ENE,58,0.0,1.0,88,0.00,,---,0.00,0.00,VWS V14.01,2013-11-07 05:36:00,
2013-11-06 21:41:00,47.8,44.4,30.10,ENE,58,0.0,1.0,88,0.00,,---,0.00,0.00,VWS V14.01,2013-11-07 05:41:00,
2013-11-06 21:46:00,47.8,44.4,30.09,ENE,58,0.0,1.0,88,0.00,,---,0.00,0.00,VWS V14.01,2013-11-07 05:46:00,
2013-11-06 21:51:00,47.8,44.4,30.09,ENE,58,0.0,1.0,88,0.00,,---,0.00,0.00,VWS V14.01,2013-11-07 05:51:00,
2013-11-06 21:56:00,47.9,44.5,30.09,ENE,58,0.0,0.0,88,0.00,,---,0.00,0.00,VWS V14.01,2013-11-07 05:56:00,
2013-11-06 22:00:00,47.9,44.5,30.09,ENE,58,0.0,1.0,88,0.00,,---,0.00,0.00,VWS V14.01,2013-11-07 06:00:00,
2013-11-06 22:01:00,48.1,44.7,30.09,ENE,58,2.0,2.0,88,0.00,,---,0.00,0.00,VWS V14.01,2013-11-07 06:01:00,
2013-11-06 22:06:00,48.1,44.7,30.08,ENE,58,1.0,5.0,88,0.00,,---,0.00,0.00,VWS V14.01,2013-11-07 06:06:00,
2013-11-06 22:11:00,48.1,44.7,30.08,ENE,58,1.0,5.0,88,0.00,,---,0.00,0.00,VWS V14.01,2013-11-07 06:11:00,
2013-11-06 22:16:00,48.1,44.7,30.08,ENE,62,2.0,5.0,88,0.00,,---,0.00,0.00,VWS V14.01,2013-11-07 06:16:00,
2013-11-06 22:21:00,48.1,44.7,30.08,SE,134,0.0,7.0,88,0.00,,---,0.00,0.00,VWS V14.01,2013-11-07 06:21:00,
2013-11-06 22:26:00,48.0,44.6,30.08,SSW,200,4.0,5.0,88,0.00,,---,0.00,0.00,VWS V14.01,2013-11-07 06:26:00,
2013-11-06 22:30:00,48.0,44.6,30.08,SSW,200,2.0,8.0,88,0.00,,---,0.00,0.00,VWS V14.01,2013-11-07 06:30:00,
2013-11-06 22:31:00,48.0,44.3,30.07,SSW,200,2.0,6.0,87,0.00,,---,0.00,0.00,VWS V14.01,2013-11-07 06:31:00,
2013-11-06 22:36:00,48.0,44.3,30.07,SSW,201,7.0,8.0,87,0.01,,---,0.01,0.00,VWS V14.01,2013-11-07 06:36:00,
2013-11-06 22:41:00,47.9,44.2,30.07,SSW,204,4.0,10.0,87,0.01,,---,0.01,0.00,VWS V14.01,2013-11-07 06:41:00,
2013-11-06 22:46:00,47.8,43.8,30.06,SSW,196,2.0,13.0,86,0.01,,---,0.01,0.00,VWS V14.01,2013-11-07 06:46:00,
2013-11-06 22:51:00,47.8,43.8,30.06,South,187,4.0,13.0,86,0.01,,---,0.01,0.00,VWS V14.01,2013-11-07 06:51:00,
2013-11-06 22:56:00,47.8,43.5,30.06,SSW,202,2.0,4.0,85,0.01,,---,0.01,0.00,VWS V14.01,2013-11-07 06:56:00,
2013-11-06 23:00:00,47.8,43.5,30.06,SSW,202,5.0,13.0,85,0.01,,---,0.01,0.00,VWS V14.01,2013-11-07 07:00:00,
2013-11-06 23:01:00,47.8,43.8,30.06,SSW,204,5.0,8.0,86,0.01,,---,0.01,0.00,VWS V14.01,2013-11-07 07:01:00,
2013-11-06 23:06:00,47.8,43.8,30.06,SSW,204,4.0,8.0,86,0.01,,---,0.01,0.00,VWS V14.01,2013-11-07 07:06:00,
2013-11-06 23:11:00,47.8,43.8,30.05,SSW,206,2.0,8.0,86,0.01,,---,0.01,0.00,VWS V14.01,2013-11-07 07:11:00,
2013-11-06 23:16:00,47.7,43.7,30.05,SSW,199,3.0,9.0,86,0.01,,---,0.01,0.00,VWS V14.01,2013-11-07 07:16:00,
2013-11-06 23:21:00,47.7,43.7,30.04,SSW,206,4.0,9.0,86,0.01,,---,0.01,0.00,VWS V14.01,2013-11-07 07:21:00,
2013-11-06 23:26:00,47.6,43.6,30.04,SSW,207,4.0,5.0,86,0.02,,---,0.02,0.00,VWS V14.01,2013-11-07 07:26:00,
2013-11-06 23:30:00,47.6,43.6,30.04,SSW,206,4.0,9.0,86,0.02,,---,0.02,0.00,VWS V14.01,2013-11-07 07:30:00,
2013-11-06 23:31:00,47.6,43.6,30.04,SSW,196,5.0,7.0,86,0.02,,---,0.02,0.00,VWS V14.01,2013-11-07 07:31:00,
2013-11-06 23:36:00,47.5,43.5,30.04,SSW,198,5.0,10.0,86,0.03,,---,0.03,0.00,VWS V14.01,2013-11-07 07:36:00,
2013-11-06 23:41:00,47.4,43.4,30.03,SSW,205,5.0,10.0,86,0.03,,---,0.03,0.00,VWS V14.01,2013-11-07 07:41:00,
2013-11-06 23:46:00,47.4,43.7,30.03,SSW,200,3.0,10.0,87,0.04,,---,0.04,0.00,VWS V14.01,2013-11-07 07:46:00,
2013-11-06 23:51:00,47.3,43.6,30.03,SSW,195,6.0,10.0,87,0.04,,---,0.04,0.00,VWS V14.01,2013-11-07 07:51:00,
2013-11-06 23:56:00,47.3,43.6,30.03,SSW,206,3.0,5.0,87,0.03,,---,0.00,0.00,VWS V14.01,2013-11-07 07:56:00,